Saint Bonnet de Bellac- Haute Vienne - France
Donnes mto: vendredi, 23/03/2012
Date Horaire Temp. E. Hum. E. P.atmo. Pluie Vent Direction Direction Ensoleilleme Solaire P. de rose Temp au vent Rafales
23/03/2012 00:00 7,8 C 75 % 1024,8 hPa 0,0 mm 0,0 km/h (0 Bft) NE 45 0 min 0 W/m 3,7 C 7,8 C 0,0 km/h (0 Bft)
23/03/2012 00:10 7,6 C 76 % 1024,8 hPa 0,0 mm 0,0 km/h (0 Bft) NE 45 0 min 0 W/m 3,6 C 7,6 C 0,0 km/h (0 Bft)
23/03/2012 00:20 7,3 C 77 % 1024,8 hPa 0,0 mm 0,0 km/h (0 Bft) E-NE 67 0 min 0 W/m 3,5 C 7,3 C 0,0 km/h (0 Bft)
23/03/2012 00:30 7,2 C 77 % 1024,8 hPa 0,0 mm 0,0 km/h (0 Bft) E-NE 67 0 min 0 W/m 3,4 C 7,2 C 0,0 km/h (0 Bft)
23/03/2012 00:40 6,9 C 77 % 1024,8 hPa 0,0 mm 0,0 km/h (0 Bft) E-NE 67 0 min 0 W/m 3,2 C 6,9 C 0,0 km/h (0 Bft)
23/03/2012 00:50 6,8 C 78 % 1024,8 hPa 0,0 mm 0,0 km/h (0 Bft) E 90 0 min 0 W/m 3,2 C 6,8 C 0,0 km/h (0 Bft)
23/03/2012 01:00 6,7 C 79 % 1024,7 hPa 0,0 mm 0,0 km/h (0 Bft) E 90 0 min 0 W/m 3,3 C 6,7 C 0,0 km/h (0 Bft)
23/03/2012 01:10 6,8 C 79 % 1024,7 hPa 0,0 mm 0,0 km/h (0 Bft) E-SE 112 0 min 0 W/m 3,4 C 6,8 C 0,0 km/h (0 Bft)
23/03/2012 01:20 7,1 C 80 % 1024,8 hPa 0,0 mm 0,4 km/h (0 Bft) E-SE 112 0 min 0 W/m 3,9 C 7,1 C 4,0 km/h (1 Bft)
23/03/2012 01:30 7,3 C 80 % 1024,7 hPa 0,0 mm 0,0 km/h (0 Bft) E-SE 112 0 min 0 W/m 4,1 C 7,3 C 0,0 km/h (0 Bft)
23/03/2012 01:40 7,4 C 80 % 1024,7 hPa 0,0 mm 0,7 km/h (0 Bft) E 90 0 min 0 W/m 4,2 C 7,4 C 3,2 km/h (1 Bft)
23/03/2012 01:50 7,5 C 80 % 1024,8 hPa 0,0 mm 0,0 km/h (0 Bft) E-SE 112 0 min 0 W/m 4,3 C 7,5 C 0,0 km/h (0 Bft)
23/03/2012 02:02 7,4 C 80 % 1024,8 hPa 0,0 mm 0,0 km/h (0 Bft) E-SE 112 0 min 0 W/m 4,2 C 7,4 C 0,0 km/h (0 Bft)
23/03/2012 02:10 7,4 C 80 % 1024,7 hPa 0,0 mm 0,0 km/h (0 Bft) E-SE 112 0 min 0 W/m 4,2 C 7,4 C 0,0 km/h (0 Bft)
23/03/2012 02:20 7,5 C 80 % 1024,7 hPa 0,0 mm 0,0 km/h (0 Bft) E-SE 112 0 min 0 W/m 4,3 C 7,5 C 0,0 km/h (0 Bft)
23/03/2012 02:30 7,5 C 80 % 1024,7 hPa 0,0 mm 0,0 km/h (0 Bft) E-SE 112 0 min 0 W/m 4,3 C 7,5 C 0,0 km/h (0 Bft)
23/03/2012 02:40 7,5 C 80 % 1024,7 hPa 0,0 mm 1,8 km/h (1 Bft) E 90 0 min 0 W/m 4,3 C 7,5 C 2,9 km/h (1 Bft)
23/03/2012 02:50 7,4 C 80 % 1024,5 hPa 0,0 mm 0,0 km/h (0 Bft) E-SE 112 0 min 0 W/m 4,2 C 7,4 C 0,0 km/h (0 Bft)
23/03/2012 03:00 7,4 C 80 % 1024,4 hPa 0,0 mm 0,4 km/h (0 Bft) E 90 0 min 0 W/m 4,2 C 7,4 C 0,4 km/h (0 Bft)
23/03/2012 03:10 7,3 C 80 % 1024,4 hPa 0,0 mm 0,0 km/h (0 Bft) SE 135 0 min 0 W/m 4,1 C 7,3 C 0,0 km/h (0 Bft)
23/03/2012 03:20 7,3 C 80 % 1024,1 hPa 0,0 mm 2,2 km/h (1 Bft) E-SE 112 0 min 0 W/m 4,1 C 7,3 C 5,8 km/h (2 Bft)
23/03/2012 03:30 7,2 C 80 % 1024,0 hPa 0,0 mm 0,0 km/h (0 Bft) SE 135 0 min 0 W/m 4,0 C 7,2 C 0,0 km/h (0 Bft)
23/03/2012 03:40 7,1 C 80 % 1023,9 hPa 0,0 mm 0,0 km/h (0 Bft) SE 135 0 min 0 W/m 3,9 C 7,1 C 0,0 km/h (0 Bft)
23/03/2012 03:50 6,9 C 80 % 1023,8 hPa 0,0 mm 0,0 km/h (0 Bft) E-SE 112 0 min 0 W/m 3,7 C 6,9 C 0,0 km/h (0 Bft)
23/03/2012 04:00 6,9 C 80 % 1023,7 hPa 0,0 mm 0,0 km/h (0 Bft) E-SE 112 0 min 0 W/m 3,7 C 6,9 C 0,0 km/h (0 Bft)
23/03/2012 04:10 6,8 C 80 % 1023,7 hPa 0,0 mm 0,7 km/h (0 Bft) E-SE 112 0 min 0 W/m 3,6 C 6,8 C 4,0 km/h (1 Bft)
23/03/2012 04:20 6,8 C 80 % 1023,7 hPa 0,0 mm 1,8 km/h (1 Bft) E 90 0 min 0 W/m 3,6 C 6,8 C 3,6 km/h (1 Bft)
23/03/2012 04:30 6,7 C 81 % 1023,8 hPa 0,0 mm 1,8 km/h (1 Bft) E 90 0 min 0 W/m 3,7 C 6,7 C 4,0 km/h (1 Bft)
23/03/2012 04:40 6,6 C 81 % 1023,8 hPa 0,0 mm 0,0 km/h (0 Bft) E 90 0 min 0 W/m 3,6 C 6,6 C 0,0 km/h (0 Bft)
23/03/2012 04:50 6,4 C 81 % 1023,8 hPa 0,0 mm 0,0 km/h (0 Bft) E-SE 112 0 min 0 W/m 3,4 C 6,4 C 0,0 km/h (0 Bft)
23/03/2012 05:00 6,1 C 81 % 1023,7 hPa 0,0 mm 0,0 km/h (0 Bft) E 90 0 min 0 W/m 3,1 C 6,1 C 0,0 km/h (0 Bft)
23/03/2012 05:10 5,8 C 82 % 1023,7 hPa 0,0 mm 0,0 km/h (0 Bft) E 90 0 min 0 W/m 3,0 C 5,8 C 0,0 km/h (0 Bft)
23/03/2012 05:20 5,7 C 82 % 1023,6 hPa 0,0 mm 0,0 km/h (0 Bft) E-SE 112 0 min 0 W/m 2,9 C 5,7 C 0,0 km/h (0 Bft)
23/03/2012 05:30 5,5 C 82 % 1023,6 hPa 0,0 mm 0,4 km/h (0 Bft) E-SE 112 0 min 0 W/m 2,7 C 5,5 C 0,4 km/h (0 Bft)
23/03/2012 05:40 5,5 C 83 % 1023,6 hPa 0,0 mm 1,1 km/h (1 Bft) E-SE 112 0 min 0 W/m 2,8 C 5,5 C 1,1 km/h (1 Bft)
23/03/2012 05:50 5,5 C 84 % 1023,6 hPa 0,0 mm 0,4 km/h (0 Bft) E-SE 112 0 min 0 W/m 3,0 C 5,5 C 0,4 km/h (0 Bft)
23/03/2012 06:00 5,4 C 84 % 1023,7 hPa 0,0 mm 0,0 km/h (0 Bft) E-SE 112 0 min 0 W/m 2,9 C 5,4 C 0,0 km/h (0 Bft)
23/03/2012 06:10 5,3 C 84 % 1023,6 hPa 0,0 mm 2,2 km/h (1 Bft) E 90 0 min 0 W/m 2,8 C 5,3 C 5,8 km/h (2 Bft)
23/03/2012 06:20 5,2 C 84 % 1023,8 hPa 0,0 mm 0,0 km/h (0 Bft) E-SE 112 0 min 0 W/m 2,7 C 5,2 C 0,0 km/h (0 Bft)
23/03/2012 06:30 5,1 C 85 % 1023,7 hPa 0,0 mm 2,9 km/h (1 Bft) E-SE 112 0 min 0 W/m 2,8 C 5,1 C 4,3 km/h (1 Bft)
23/03/2012 06:40 5,1 C 85 % 1023,7 hPa 0,0 mm 0,0 km/h (0 Bft) E-SE 112 0 min 0 W/m 2,8 C 5,1 C 0,0 km/h (0 Bft)
23/03/2012 06:50 5,1 C 85 % 1023,7 hPa 0,0 mm 0,0 km/h (0 Bft) E-SE 112 0 min 0 W/m 2,8 C 5,1 C 0,0 km/h (0 Bft)
23/03/2012 07:00 4,9 C 85 % 1023,7 hPa 0,0 mm 0,0 km/h (0 Bft) E-SE 112 0 min 0 W/m 2,6 C 4,9 C 0,0 km/h (0 Bft)
23/03/2012 07:10 4,8 C 85 % 1023,8 hPa 0,0 mm 0,0 km/h (0 Bft) E-SE 112 2 min 0 W/m 2,5 C 4,8 C 0,0 km/h (0 Bft)
23/03/2012 07:20 4,8 C 86 % 1023,9 hPa 0,0 mm 0,0 km/h (0 Bft) E-SE 112 2 min 0 W/m 2,7 C 4,8 C 0,0 km/h (0 Bft)
23/03/2012 07:30 4,9 C 86 % 1024,0 hPa 0,0 mm 0,7 km/h (0 Bft) E 90 2 min 0 W/m 2,8 C 4,9 C 3,6 km/h (1 Bft)
23/03/2012 07:40 5,1 C 86 % 1024,0 hPa 0,0 mm 0,0 km/h (0 Bft) E 90 2 min 0 W/m 3,0 C 5,1 C 3,2 km/h (1 Bft)
23/03/2012 07:50 5,1 C 86 % 1024,1 hPa 0,0 mm 0,7 km/h (0 Bft) E 90 2 min 0 W/m 3,0 C 5,1 C 4,0 km/h (1 Bft)
23/03/2012 08:00 5,4 C 86 % 1024,0 hPa 0,0 mm 2,5 km/h (1 Bft) E-SE 112 2 min 0 W/m 3,3 C 5,4 C 4,3 km/h (1 Bft)
23/03/2012 08:10 5,8 C 86 % 1024,2 hPa 0,0 mm 0,7 km/h (0 Bft) E 90 2 min 0 W/m 3,6 C 5,8 C 4,3 km/h (1 Bft)
23/03/2012 08:20 6,4 C 85 % 1024,1 hPa 0,0 mm 0,0 km/h (0 Bft) E-SE 112 2 min 0 W/m 4,1 C 6,4 C 4,3 km/h (1 Bft)
23/03/2012 08:30 6,9 C 84 % 1024,1 hPa 0,0 mm 0,0 km/h (0 Bft) E-SE 112 2 min 0 W/m 4,4 C 6,9 C 3,2 km/h (1 Bft)
23/03/2012 08:40 7,6 C 83 % 1024,2 hPa 0,0 mm 0,0 km/h (0 Bft) E-SE 112 2 min 0 W/m 4,9 C 7,6 C 0,0 km/h (0 Bft)
23/03/2012 08:50 8,3 C 81 % 1024,4 hPa 0,0 mm 0,0 km/h (0 Bft) E-SE 112 2 min 0 W/m 5,2 C 8,3 C 0,0 km/h (0 Bft)
23/03/2012 09:00 8,9 C 80 % 1024,3 hPa 0,0 mm 0,0 km/h (0 Bft) E-SE 112 2 min 0 W/m 5,6 C 8,9 C 0,0 km/h (0 Bft)
23/03/2012 09:10 9,8 C 78 % 1024,7 hPa 0,0 mm 0,0 km/h (0 Bft) E-SE 112 2 min 0 W/m 6,1 C 9,8 C 0,0 km/h (0 Bft)
23/03/2012 09:20 10,6 C 77 % 1024,7 hPa 0,0 mm 0,0 km/h (0 Bft) E-SE 112 2 min 0 W/m 6,7 C 10,6 C 0,0 km/h (0 Bft)
23/03/2012 09:30 11,5 C 75 % 1024,6 hPa 0,0 mm 0,4 km/h (0 Bft) E-SE 112 2 min 0 W/m 7,2 C 11,5 C 3,6 km/h (1 Bft)
23/03/2012 09:40 12,6 C 72 % 1024,8 hPa 0,0 mm 0,0 km/h (0 Bft) E-SE 112 2 min 0 W/m 7,7 C 12,6 C 0,0 km/h (0 Bft)
23/03/2012 09:50 13,7 C 70 % 1024,8 hPa 0,0 mm 1,1 km/h (1 Bft) E-SE 112 2 min 0 W/m 8,3 C 13,7 C 4,0 km/h (1 Bft)
23/03/2012 10:00 14,6 C 67 % 1024,7 hPa 0,0 mm 2,5 km/h (1 Bft) E-NE 67 2 min 0 W/m 8,5 C 14,6 C 4,0 km/h (1 Bft)
23/03/2012 10:10 15,3 C 65 % 1024,8 hPa 0,0 mm 1,8 km/h (1 Bft) E 90 2 min 0 W/m 8,8 C 15,3 C 4,3 km/h (1 Bft)
23/03/2012 10:20 16,0 C 63 % 1024,9 hPa 0,0 mm 0,0 km/h (0 Bft) E 90 2 min 0 W/m 9,0 C 16,0 C 0,0 km/h (0 Bft)
23/03/2012 10:30 16,9 C 61 % 1024,9 hPa 0,0 mm 0,0 km/h (0 Bft) E-NE 67 2 min 0 W/m 9,3 C 16,9 C 0,0 km/h (0 Bft)
23/03/2012 10:40 17,5 C 59 % 1025,0 hPa 0,0 mm 2,2 km/h (1 Bft) E-NE 67 2 min 0 W/m 9,4 C 17,5 C 4,0 km/h (1 Bft)
23/03/2012 10:50 18,2 C 57 % 1024,9 hPa 0,0 mm 2,9 km/h (1 Bft) E-NE 67 2 min 0 W/m 9,5 C 18,2 C 2,9 km/h (1 Bft)
23/03/2012 11:00 18,6 C 55 % 1025,0 hPa 0,0 mm 2,5 km/h (1 Bft) E-NE 67 2 min 0 W/m 9,4 C 18,6 C 4,3 km/h (1 Bft)
23/03/2012 11:10 19,4 C 54 % 1025,1 hPa 0,0 mm 2,5 km/h (1 Bft) NE 45 2 min 0 W/m 9,8 C 19,4 C 4,3 km/h (1 Bft)
23/03/2012 11:20 19,8 C 51 % 1025,0 hPa 0,0 mm 1,8 km/h (1 Bft) N 360 2 min 0 W/m 9,4 C 19,8 C 6,5 km/h (2 Bft)
23/03/2012 11:30 20,2 C 51 % 1024,8 hPa 0,0 mm 3,2 km/h (1 Bft) E-NE 67 2 min 0 W/m 9,7 C 20,2 C 3,2 km/h (1 Bft)
23/03/2012 11:40 20,8 C 50 % 1024,9 hPa 0,0 mm 2,2 km/h (1 Bft) E-NE 67 2 min 0 W/m 10,0 C 20,8 C 4,3 km/h (1 Bft)
23/03/2012 11:50 21,2 C 48 % 1024,8 hPa 0,0 mm 4,3 km/h (1 Bft) N-NE 22 2 min 0 W/m 9,7 C 21,2 C 4,3 km/h (1 Bft)
23/03/2012 12:00 21,3 C 46 % 1024,7 hPa 0,0 mm 4,3 km/h (1 Bft) N 360 2 min 0 W/m 9,2 C 21,3 C 6,1 km/h (2 Bft)
23/03/2012 12:10 21,6 C 48 % 1024,6 hPa 0,0 mm 1,4 km/h (1 Bft) NE 45 2 min 0 W/m 10,1 C 21,6 C 4,3 km/h (1 Bft)
23/03/2012 12:20 21,9 C 48 % 1024,6 hPa 0,0 mm 2,2 km/h (1 Bft) E-NE 67 2 min 0 W/m 10,4 C 21,9 C 4,0 km/h (1 Bft)
23/03/2012 12:30 22,0 C 47 % 1024,5 hPa 0,0 mm 3,6 km/h (1 Bft) NE 45 2 min 0 W/m 10,2 C 22,0 C 6,5 km/h (2 Bft)
23/03/2012 12:40 22,2 C 44 % 1024,4 hPa 0,0 mm 0,0 km/h (0 Bft) E 90 2 min 0 W/m 9,4 C 22,2 C 0,0 km/h (0 Bft)
23/03/2012 12:50 22,6 C 44 % 1024,4 hPa 0,0 mm 1,8 km/h (1 Bft) E-NE 67 2 min 0 W/m 9,7 C 22,6 C 4,0 km/h (1 Bft)
23/03/2012 13:00 22,8 C 43 % 1024,3 hPa 0,0 mm 1,8 km/h (1 Bft) N 360 2 min 0 W/m 9,6 C 22,8 C 3,6 km/h (1 Bft)
23/03/2012 13:10 22,9 C 42 % 1024,2 hPa 0,0 mm 1,1 km/h (1 Bft) N-NE 22 2 min 0 W/m 9,3 C 22,9 C 3,6 km/h (1 Bft)
23/03/2012 13:20 22,9 C 41 % 1024,1 hPa 0,0 mm 5,8 km/h (2 Bft) SE 135 2 min 0 W/m 8,9 C 22,9 C 8,6 km/h (2 Bft)
23/03/2012 13:30 22,6 C 41 % 1023,9 hPa 0,0 mm 2,9 km/h (1 Bft) NE 45 2 min 0 W/m 8,7 C 22,6 C 4,0 km/h (1 Bft)
23/03/2012 13:40 22,7 C 41 % 1023,9 hPa 0,0 mm 2,9 km/h (1 Bft) E-NE 67 2 min 0 W/m 8,8 C 22,7 C 8,3 km/h (2 Bft)
23/03/2012 13:50 22,6 C 40 % 1023,8 hPa 0,0 mm 2,5 km/h (1 Bft) N-NE 22 2 min 0 W/m 8,3 C 22,6 C 6,8 km/h (2 Bft)
23/03/2012 14:00 22,6 C 41 % 1023,5 hPa 0,0 mm 8,3 km/h (2 Bft) N-NE 22 2 min 0 W/m 8,7 C 22,6 C 19,8 km/h (3 Bft)
_ Min-Heure 07:20 13:50 14:00 - 12:40 - - - - 07:10 07:20 12:40
Minimum _ 4,8 C 40 % 1023,5 hPa - 0,0 km/h (0 Bft) - - - - 2,5 C 4,8 C 0,0 km/h (0 Bft)
_ Max-Heure 13:20 08:10 11:10 14:00 14:00 - - 14:00 14:00 12:20 13:20 14:00
Maximum _ 22,9 C 86 % 1025,1 hPa 0,0 mm 8,3 km/h
N-NE (2 Bft)
- - 2 min 0 W/m 10,4 C 22,9 C 19,8 km/h
N-NE (3 Bft)
Moyenne _ 10,9 C 72 % 1024,3 hPa #0,0 mm 1,0 km/h (0 Bft) E-SE - #1:24 h 0 W/m 5,5 C 10,9 C 2,3 km/h (1 Bft)
Saint Bonnet de Bellac- Haute Vienne - France